Wind_Speed
23 23 23 21 19 18 18 17 17 18 20 20 19 19 17 16 17 18 20 23 20 17 18 19 19 18 18 18 17 17 17 15 14 12 11 11 11 12 12 12 11 11 10 10 10 11 12 13 13 13 13 13 13 13 13 13 13 13 13 13 14 15 16 17 17 17 17 16 16 15 15 16 16 17 17 18 18 18 19 19 19 18 18 18 19
22 21 21 21 20 20 20 20 20 20 21 21 20 19 19 19 21 21 23 25 21 18 19 19 19 19 18 18 17 17 16 15 14 12 11 11 11 12 12 11 11 10 10 10 11 11 11 12 13 13 14 14 13 13 13 14 14 14 14 14 14 15 16 16 17 17 17 17 16 16 16 17 17 18 18 18 18 18 18 19 18 18 18 18 19
20 20 21 21 22 22 22 23 23 22 21 21 20 21 20 19 23 26 28 28 22 19 19 18 18 18 16 17 17 16 14 13 12 11 10 10 10 11 11 11 11 10 11 11 11 11 12 12 13 13 14 14 14 14 14 15 15 16 16 16 16 16 16 17 17 18 18 18 18 17 17 18 18 20 20 19 18 18 19 19 18 18 18 18 19
18 19 21 22 23 24 25 25 23 21 20 20 20 19 17 17 23 26 26 25 21 20 19 18 18 16 15 16 16 14 12 10 10 10 10 9 9 10 10 10 11 11 11 12 12 12 12 13 13 13 13 14 15 15 15 16 16 17 17 18 18 18 17 18 18 19 19 20 20 19 19 19 20 21 21 20 18 18 19 19 19 19 19 19 20
16 18 20 22 25 26 26 26 24 21 19 19 17 15 14 16 22 25 22 19 19 20 20 19 17 16 16 16 16 14 11 10 10 10 10 9 9 10 10 10 11 11 12 12 13 13 13 13 13 13 14 14 15 15 16 16 17 17 18 18 18 18 18 18 18 19 20 21 21 21 20 21 21 21 21 20 19 19 20 20 20 19 19 20 20
16 18 21 24 27 24 23 24 21 18 16 15 15 16 17 18 24 28 26 22 21 21 20 19 19 19 18 17 17 15 13 12 11 11 11 10 9 9 10 10 11 11 12 12 13 14 14 13 13 12 13 14 15 15 16 17 17 18 18 18 19 19 19 18 19 19 20 20 21 21 21 21 21 20 20 21 20 20 20 20 20 19 19 19 21
17 20 24 28 27 23 21 19 14 13 14 13 14 17 18 19 23 27 28 27 22 20 19 20 21 20 19 18 18 16 15 14 13 13 12 11 10 10 11 12 12 13 13 14 14 15 15 15 14 13 13 14 15 15 16 17 18 18 19 19 19 19 19 19 19 19 19 20 20 20 20 21 21 20 21 21 20 19 21 21 20 19 19 21 21
20 24 27 25 20 17 16 15 12 11 12 13 15 18 19 21 21 21 24 27 24 21 20 19 18 19 19 18 19 18 16 16 15 14 13 12 12 12 13 13 13 14 15 16 16 16 16 16 16 15 14 14 15 15 16 17 17 18 19 20 20 20 21 21 20 20 20 20 19 19 20 20 20 21 21 21 20 20 20 20 19 18 20 21 22
23 27 26 17 14 12 12 14 15 14 10 13 17 21 24 25 21 19 20 24 25 25 26 23 18 18 19 19 19 19 18 18 17 15 14 14 13 13 12 12 13 15 17 18 18 18 17 17 17 16 15 15 15 15 16 17 17 18 19 19 20 21 21 22 22 21 21 20 20 19 20 20 20 21 21 21 21 19 18 19 18 18 19 20 20
24 25 20 15 14 13 13 14 15 17 18 18 18 23 28 27 21 19 20 21 24 26 28 27 20 18 20 20 19 19 19 18 17 16 15 15 14 13 12 12 13 14 16 18 19 18 18 17 17 17 16 16 16 16 16 17 17 18 18 19 20 21 22 22 22 22 22 22 21 20 20 20 20 20 21 21 21 20 19 19 20 20 20 20 19
23 21 17 17 16 15 15 17 17 21 24 23 21 22 25 28 25 21 20 20 21 23 25 27 24 19 18 19 20 19 19 19 17 17 17 17 16 14 14 14 12 13 15 16 17 17 17 17 18 17 17 17 17 17 17 17 17 17 18 19 19 20 21 21 22 23 23 23 23 22 21 20 20 20 21 21 21 21 20 20 20 20 20 20 20
22 19 18 18 19 19 19 21 22 23 23 23 24 22 21 27 27 21 18 19 20 20 22 26 28 24 19 18 20 20 19 19 19 18 19 19 18 16 16 16 15 14 14 15 15 15 16 17 18 18 18 18 18 18 17 17 17 17 18 18 19 19 19 20 20 21 23 23 23 23 22 21 21 20 20 21 20 20 19 19 19 19 20 20 20
23 20 20 20 22 24 24 25 24 22 22 22 22 23 21 22 25 25 20 18 19 20 21 24 29 31 26 20 19 19 20 20 19 19 20 20 19 18 17 18 17 16 14 14 14 15 16 16 18 19 19 19 19 18 18 17 18 17 17 18 18 18 19 19 19 19 20 21 22 22 21 21 21 20 20 20 20 19 19 18 18 18 19 19 19
24 21 22 24 26 28 28 28 25 21 21 22 22 25 24 21 24 29 25 19 18 20 21 25 29 33 31 22 18 19 21 21 20 20 20 20 20 20 19 19 17 15 13 14 15 15 16 17 18 19 19 20 19 18 18 17 17 17 17 17 17 18 18 18 18 18 18 19 20 20 20 20 20 20 20 20 19 19 18 17 17 17 17 18 18
26 25 25 27 30 31 31 30 28 24 21 21 22 24 25 24 24 27 27 22 22 24 23 26 31 33 31 23 18 17 18 19 20 20 20 21 21 21 20 18 17 17 16 16 16 16 16 17 17 18 18 19 19 19 18 18 17 17 16 16 16 16 17 17 18 18 18 18 18 18 18 19 19 19 19 19 19 18 18 17 16 15 16 17 17
29 28 29 30 33 34 33 32 30 27 24 22 22 24 25 26 25 26 28 27 26 26 26 26 30 33 33 26 21 18 16 16 17 17 18 19 20 20 19 18 19 20 19 18 17 18 18 18 17 17 17 18 18 19 19 19 18 17 16 15 15 15 15 16 16 17 18 18 18 17 17 17 17 17 18 18 18 18 18 17 16 15 14 15 15
32 32 32 33 35 36 35 34 33 31 28 23 22 24 25 27 27 27 29 29 26 24 25 25 23 26 29 24 20 19 18 17 17 17 18 18 19 19 19 20 22 21 18 16 17 19 19 18 18 17 17 17 18 18 18 18 18 17 17 16 15 15 15 15 16 16 17 17 17 16 16 16 15 16 16 16 16 16 16 16 15 15 14 13 13
34 34 34 35 37 37 36 36 36 35 34 30 26 25 25 27 26 24 25 27 25 22 21 22 19 18 20 19 18 18 18 18 17 17 17 18 18 19 19 21 22 19 15 13 16 18 19 19 18 18 18 17 17 17 16 17 17 17 17 16 16 16 17 17 17 17 17 16 16 16 15 15 14 14 14 15 15 15 15 14 14 14 13 13 13
33 34 35 36 37 37 36 36 36 35 36 34 30 26 26 28 27 22 22 23 21 19 19 19 18 17 18 19 18 18 17 17 16 16 17 17 18 19 20 21 21 19 15 13 15 17 18 18 19 18 18 17 17 16 16 16 16 16 16 16 16 16 17 18 19 19 18 17 16 15 15 14 14 14 14 14 14 14 14 14 14 13 13 13 13
30 31 32 34 35 35 34 34 34 35 35 34 30 27 27 29 32 28 25 25 21 19 19 19 18 18 19 19 19 19 19 18 17 17 17 18 18 19 19 20 21 21 20 17 16 16 17 18 18 18 17 17 17 17 16 16 16 16 15 15 15 15 16 17 18 19 19 19 18 16 15 14 14 14 14 14 14 14 14 14 14 14 14 14 13
27 28 29 30 32 33 32 31 31 33 35 33 29 26 23 24 28 28 27 27 24 20 19 18 18 18 19 19 20 20 20 20 19 18 17 18 19 19 20 20 21 21 21 19 18 17 16 17 18 17 17 18 18 18 17 16 15 14 14 14 14 13 14 15 16 17 17 18 18 17 16 15 15 14 14 15 15 15 14 14 14 14 14 14 14
25 27 28 29 30 31 29 29 30 31 32 31 27 23 22 19 19 18 19 21 19 16 16 16 17 18 19 20 20 20 20 19 18 17 17 18 19 19 20 20 20 20 20 20 18 17 17 17 18 17 17 18 19 18 17 15 14 13 14 14 13 13 14 15 16 16 17 18 18 18 18 17 16 16 16 16 16 16 16 16 16 16 16 16 16
24 26 27 28 29 29 27 26 29 30 29 27 25 23 22 18 15 13 13 14 13 14 16 17 18 19 19 20 19 19 18 17 17 17 17 17 18 19 19 19 20 20 20 21 20 18 17 18 18 18 18 18 19 18 17 16 16 16 16 17 17 17 18 18 18 18 18 18 18 18 19 19 19 18 18 18 18 18 18 18 18 19 19 19 19
21 23 25 26 26 26 24 23 25 26 25 22 21 21 20 16 13 12 13 14 14 16 18 19 19 19 19 20 19 19 18 18 18 18 18 18 19 20 20 21 22 22 22 23 21 19 18 18 18 18 19 20 20 19 19 20 20 19 19 19 19 20 20 20 20 21 21 21 21 21 21 21 21 21 20 20 20 20 20 20 20 21 21 21 21
18 19 21 23 24 23 22 21 21 22 22 20 18 16 15 12 10 9 11 13 15 17 18 18 18 18 19 19 20 20 20 20 21 21 20 20 20 21 21 21 21 21 21 21 20 19 18 18 19 19 20 22 22 22 22 22 22 22 21 20 20 21 21 21 22 22 23 23 24 25 24 24 23 23 22 22 21 22 22 22 22 23 23 23 23
18 19 20 21 22 22 21 20 19 19 20 18 16 13 11 10 9 10 11 12 15 17 17 17 17 18 20 21 22 22 23 24 24 23 23 23 22 22 21 20 19 19 19 19 19 18 18 18 19 19 21 23 24 24 24 24 24 23 23 22 22 23 22 21 21 22 23 23 24 24 24 24 25 25 26 25 24 24 24 25 25 26 26 26 25
19 19 20 21 21 22 22 21 20 19 19 18 16 14 12 11 11 12 13 14 16 18 19 19 19 19 20 21 22 24 24 24 23 22 23 23 23 22 21 20 19 19 19 19 19 20 21 20 20 20 22 23 25 25 25 26 26 25 25 25 24 24 23 23 22 23 23 24 24 24 24 24 25 26 27 28 26 26 27 27 28 29 29 29 28
22 21 20 21 21 22 23 22 21 20 20 20 19 17 16 14 14 15 15 16 17 18 19 21 21 21 21 22 23 24 24 22 21 21 22 23 22 22 22 21 21 21 21 21 21 21 22 22 21 21 22 23 25 26 27 27 27 27 27 27 25 24 24 24 24 24 25 26 26 26 26 26 26 26 26 27 27 27 28 29 29 31 32 32 32
24 24 24 23 23 23 24 24 23 21 21 21 20 20 19 18 18 18 19 19 19 19 19 20 20 21 21 21 23 25 25 25 24 24 25 25 24 24 24 24 25 25 25 24 23 23 23 23 23 23 24 25 26 28 29 30 30 29 29 28 28 27 27 26 27 27 28 29 30 30 30 31 30 29 29 29 29 30 32 33 33 34 35 36 35
27 27 26 26 26 26 25 25 24 23 22 21 21 21 21 21 21 21 21 22 22 22 23 22 22 22 22 22 23 24 26 27 28 28 28 27 27 27 27 28 29 29 29 27 26 26 27 27 28 27 28 28 29 29 30 30 31 31 31 31 31 31 31 31 32 32 32 33 34 34 35 36 35 35 35 34 35 36 37 37 37 36 36 37 37
29 29 28 28 27 27 27 26 26 25 25 24 24 24 24 25 25 25 25 25 25 26 27 27 28 28 28 27 27 28 29 30 32 33 32 31 32 32 32 32 33 33 32 31 30 30 31 32 32 32 31 31 31 31 31 31 32 33 34 35 35 35 36 37 37 37 36 37 37 37 38 39 40 40 40 40 41 41 41 41 40 39 38 37 38
32 31 30 30 29 29 28 28 28 28 28 28 28 28 28 28 29 29 30 30 31 31 32 32 32 33 33 33 33 33 34 34 35 36 36 37 37 37 37 37 38 37 37 37 36 35 35 35 36 35 35 35 35 35 35 36 36 37 38 39 40 40 41 41 40 40 39 39 39 39 40 41 41 42 42 43 43 44 44 43 43 42 41 41 40
34 34 33 32 32 32 32 32 32 32 32 33 33 33 33 33 34 34 34 35 35 36 37 37 38 38 38 38 39 39 39 39 39 39 40 40 40 40 40 41 41 41 41 41 40 40 39 39 39 38 39 39 39 40 41 41 42 42 43 43 43 43 43 42 41 41 41 41 41 41 42 42 43 42 42 42 43 44 44 43 43 43 43 43 44
36 35 35 35 34 35 35 36 36 36 37 37 37 37 37 37 38 39 39 39 40 40 40 41 42 42 42 42 42 43 42 42 42 42 42 43 43 42 42 43 43 43 43 42 39 39 41 42 42 41 41 42 43 43 44 45 45 45 44 44 44 43 42 42 42 43 43 43 43 43 43 43 44 43 42 42 41 42 42 42 43 44 44 45 45
37 37 37 37 37 38 38 38 39 40 40 41 41 42 42 42 42 42 41 41 41 40 40 41 41 41 41 41 41 41 42 42 42 42 42 43 45 45 45 46 46 46 46 44 42 43 45 45 45 45 44 44 45 45 45 46 45 45 44 43 43 43 43 44 44 44 44 44 43 43 43 44 45 45 45 44 43 42 43 43 44 45 46 47 47
37 37 38 38 39 39 39 39 40 40 41 40 39 40 42 42 42 40 40 40 40 39 38 38 38 38 38 38 37 38 39 39 40 41 42 43 44 45 45 46 46 46 47 47 47 49 50 50 49 48 46 46 45 45 46 46 45 44 44 44 44 44 45 45 45 46 46 45 45 45 46 47 47 47 47 47 46 45 45 45 46 47 47 48 48
37 36 36 37 38 38 38 38 37 36 34 32 31 31 33 35 34 34 35 37 39 39 39 38 38 38 37 37 38 39 40 41 41 42 42 43 43 43 43 44 44 45 46 47 49 49 50 50 49 48 48 47 46 46 46 46 45 45 46 46 46 45 45 45 46 46 47 47 47 48 48 48 48 48 48 47 47 47 47 47 47 48 48 48 49
43 42 43 43 43 43 43 43 42 40 39 38 37 37 37 37 37 36 36 37 39 40 40 39 38 38 38 38 39 39 40 41 42 42 41 40 40 39 39 40 41 42 44 45 46 47 48 48 48 49 49 49 48 48 46 46 46 46 45 45 44 43 43 44 45 46 46 46 45 45 45 45 45 45 45 45 46 46 46 47 47 48 48 48 48
48 49 50 50 49 48 48 49 50 50 50 50 51 52 52 51 50 49 47 46 46 46 45 44 43 44 43 42 41 41 41 40 41 42 43 41 39 37 37 37 37 38 40 42 43 44 45 45 46 47 47 47 46 46 45 45 45 43 42 41 41 41 42 44 45 45 44 44 43 43 43 43 43 43 44 44 45 46 46 47 47 48 48 48 48
49 50 51 52 52 52 52 54 54 54 55 56 57 58 58 57 57 56 55 54 54 54 53 52 51 51 50 49 48 47 45 44 44 44 45 44 42 39 36 35 36 36 38 41 42 42 42 43 43 43 43 43 43 42 42 42 41 41 40 41 42 44 45 45 45 46 46 46 46 46 45 45 44 44 45 45 46 47 47 48 48 49 49 49 49
49 50 51 52 53 54 54 55 55 55 56 56 57 58 58 58 58 58 56 56 56 56 56 56 56 55 55 54 54 53 52 51 50 49 49 49 47 45 42 41 41 41 41 43 43 42 42 43 43 43 43 43 43 43 42 42 42 43 44 45 46 47 47 47 48 49 49 49 48 47 46 46 46 46 47 47 48 49 49 49 49 49 49 50 50
50 51 51 52 53 54 54 55 55 56 56 57 57 58 59 59 60 59 59 58 57 57 57 57 57 57 57 56 56 56 56 56 56 56 56 55 55 55 54 54 53 52 51 50 49 47 47 47 47 47 47 48 48 47 47 46 46 47 47 48 48 49 50 51 51 51 50 49 48 48 49 49 49 49 50 50 51 51 51 51 50 50 50 50 51
51 52 53 54 54 55 56 56 57 57 58 59 59 59 60 60 60 60 60 60 59 59 59 59 58 58 58 58 57 57 58 57 57 57 58 58 58 59 59 60 60 60 58 57 56 55 55 55 54 52 50 51 51 50 49 49 49 49 50 51 51 52 53 53 53 52 51 50 50 51 51 52 52 52 52 52 52 52 52 51 51 50 50 50 50
53 54 55 56 56 57 58 58 59 59 60 60 60 61 61 61 62 61 61 62 62 61 61 61 61 60 60 59 58 58 58 58 57 57 57 57 57 57 57 58 58 59 59 58 57 56 57 58 59 58 56 55 55 54 54 56 56 56 55 55 54 54 54 54 54 54 54 53 53 53 53 53 53 53 53 53 52 52 51 50 49 49 48 48 48
54 55 56 57 58 58 59 60 60 61 61 61 61 61 61 62 62 62 61 61 61 61 61 60 60 59 60 60 59 59 59 59 59 58 58 58 57 57 57 57 57 57 58 57 57 56 55 57 58 59 58 58 58 57 57 58 58 56 55 55 56 56 57 57 56 56 55 55 54 54 54 53 53 53 52 52 51 50 49 48 47 47 47 47 47
54 54 55 56 57 57 57 58 58 58 59 59 60 60 60 59 59 59 59 59 59 59 58 58 58 58 59 60 61 62 62 62 62 61 60 60 59 59 58 57 56 56 56 56 56 56 56 56 57 57 57 57 58 58 59 59 58 57 57 58 58 59 58 58 57 56 56 55 54 54 53 53 52 52 51 50 49 49 48 47 46 46 46 46 46
53 54 55 56 56 56 56 56 56 56 56 57 58 58 59 58 58 58 58 59 59 60 60 61 62 64 64 65 65 65 65 64 64 63 63 62 61 60 60 59 58 57 57 56 56 55 56 56 56 56 56 56 56 57 58 58 58 58 58 58 58 58 58 58 57 57 56 55 54 53 52 51 51 50 50 49 49 48 48 47 46 45 45 44 44
51 52 53 54 55 56 56 56 56 56 57 58 59 60 60 60 60 61 62 63 64 65 67 68 69 70 70 69 68 68 67 67 66 66 65 64 64 62 61 60 60 59 57 57 56 56 56 56 55 56 57 57 57 58 58 58 58 57 57 58 58 58 58 58 57 56 55 55 53 52 51 51 50 50 50 49 49 49 48 46 45 44 43 42 42
50 51 52 53 55 56 57 58 58 59 59 60 61 61 62 63 65 66 68 70 70 70 70 70 70 70 69 68 66 66 66 66 66 66 66 65 65 64 63 63 63 61 59 60 59 59 58 58 57 59 60 61 61 61 61 61 61 60 60 59 59 59 59 58 57 56 55 54 53 52 51 51 50 50 50 49 49 48 47 45 44 42 41 40 39
53 54 55 56 57 59 59 60 60 61 62 63 65 67 69 71 72 73 73 71 69 67 66 66 66 66 66 66 65 64 63 63 63 63 63 64 64 64 64 65 65 64 63 64 64 64 63 61 60 62 63 64 64 64 63 62 62 62 61 61 60 59 59 58 57 56 54 53 53 52 51 51 50 50 49 48 47 46 45 43 41 39 38 37 36
56 57 58 59 60 61 62 63 65 66 68 70 72 73 73 74 73 72 70 67 65 64 63 63 64 64 65 65 64 63 63 62 62 62 62 62 62 62 62 63 64 64 64 65 65 65 65 65 65 66 67 66 66 64 63 62 61 61 60 60 59 59 58 57 56 54 53 51 51 51 50 49 49 48 47 46 44 43 41 39 38 36 35 34 33
Wind_Direction
256 259 263 267 270 267 264 262 261 261 257 254 254 253 250 246 239 229 216 216 218 213 208 208 210 213 218 223 226 229 231 234 238 244 252 260 264 266 266 267 266 268 269 268 269 268 268 272 272 272 273 273 274 275 277 277 276 273 268 262 259 259 259 259 260 263 266 269 269 268 266 266 265 266 267 268 268 267 268 267 267 267 267 265 263
256 260 264 266 267 265 262 261 259 253 246 245 247 248 252 248 231 216 210 214 214 209 210 211 214 218 222 227 230 231 232 234 239 243 248 252 255 258 259 263 267 270 273 273 272 271 270 270 270 271 272 273 273 273 274 275 275 274 270 264 258 255 256 256 258 261 264 266 268 269 269 268 268 268 268 268 270 270 271 271 270 269 267 263 262
256 258 262 264 264 263 258 254 249 242 236 238 241 244 248 238 219 210 208 209 210 210 213 216 220 224 227 229 230 231 233 238 242 244 245 249 253 257 261 264 269 272 273 274 271 270 271 270 270 270 269 270 271 271 271 271 271 272 270 267 262 256 254 255 258 261 264 266 268 269 269 269 269 269 267 267 269 270 271 272 273 274 272 268 266
254 257 261 262 261 257 250 244 239 234 230 232 239 241 239 227 216 215 211 208 210 212 215 220 224 227 232 233 232 233 239 245 247 247 245 249 255 260 265 268 271 273 273 272 269 268 267 269 271 271 270 269 268 269 269 269 269 268 268 268 266 262 258 257 258 261 264 266 268 269 270 269 269 269 268 266 266 269 270 271 272 273 272 271 269
248 252 255 257 257 251 243 238 233 228 224 229 235 227 221 218 212 214 215 214 218 220 220 223 229 241 249 245 238 239 246 247 245 245 242 245 252 258 263 266 268 269 270 270 268 266 263 264 267 270 272 270 268 268 268 268 268 267 267 267 267 266 264 262 260 261 263 265 268 270 270 270 270 272 272 268 266 268 268 268 269 269 270 271 271
241 244 249 251 250 246 244 242 231 223 219 222 227 216 211 211 207 212 217 217 221 227 229 234 244 258 263 254 245 244 246 244 241 240 239 239 245 252 256 260 265 268 270 271 269 267 265 263 265 267 270 271 270 268 267 268 268 269 269 269 269 269 270 269 265 263 263 264 266 267 268 269 270 271 270 268 265 264 264 264 265 264 264 267 268
234 237 242 245 248 251 251 243 225 218 218 218 230 228 220 214 209 216 223 221 225 234 236 243 252 259 260 255 250 246 244 241 239 239 239 237 238 244 252 258 266 272 273 273 271 270 267 265 265 267 270 272 273 272 271 270 270 271 272 272 272 273 273 272 270 268 266 265 264 265 265 265 266 265 265 265 262 261 264 264 262 261 260 262 264
230 235 240 249 262 266 251 234 215 205 212 225 236 236 232 227 222 224 225 224 230 237 238 245 256 257 254 253 252 250 246 240 237 239 239 238 239 243 252 262 273 280 281 278 274 271 268 265 264 266 269 272 273 274 274 273 272 273 274 274 275 275 275 274 274 272 270 268 265 263 262 262 262 261 261 262 262 263 264 261 259 260 262 263 265
228 233 241 262 289 280 258 244 224 207 224 247 242 240 238 232 227 222 218 219 228 237 240 246 257 258 252 251 253 251 246 241 239 240 240 242 245 249 256 267 279 285 282 278 275 272 269 267 265 266 269 270 272 273 274 274 274 275 276 277 278 278 278 277 276 275 273 271 268 265 263 261 259 258 257 259 260 260 258 255 256 261 263 264 265
227 233 250 284 297 283 278 271 242 229 248 256 247 246 238 222 212 214 216 220 229 237 241 243 249 254 250 250 251 249 245 242 242 244 246 249 251 254 260 268 281 287 279 271 270 270 270 268 267 267 268 271 272 272 272 273 274 275 276 278 279 280 280 280 279 277 276 274 271 268 264 261 258 256 255 254 254 253 253 255 257 259 260 261 264
231 239 266 291 294 287 281 274 256 244 248 250 253 255 236 216 209 211 219 225 230 237 242 241 241 245 248 248 247 246 244 243 244 246 248 251 252 255 260 265 279 291 281 268 266 267 268 268 268 268 269 271 273 273 272 271 271 273 274 276 279 281 282 282 282 281 279 277 274 271 268 264 261 257 255 254 252 250 251 253 255 257 258 260 262
240 249 274 287 288 287 276 266 260 256 259 259 263 268 247 227 221 219 230 239 237 240 244 241 236 237 246 252 245 242 243 243 244 245 247 251 253 255 260 264 276 290 283 268 264 265 267 268 269 270 271 270 271 272 273 272 272 272 273 274 277 279 282 283 283 283 281 279 275 272 270 267 264 261 258 256 254 252 251 251 252 255 257 260 262
249 256 274 280 283 282 275 271 271 270 275 273 267 267 262 251 240 234 244 254 246 245 251 250 241 235 241 252 247 240 242 242 243 245 247 251 253 256 261 266 276 284 279 268 265 265 266 268 269 270 270 269 269 270 271 272 273 273 273 273 274 276 278 280 282 282 282 281 278 274 271 268 265 263 261 259 257 256 254 253 253 255 258 260 262
259 263 273 277 280 278 273 275 278 275 277 277 271 266 265 268 256 242 241 252 252 251 257 261 253 239 236 245 247 241 241 242 244 245 248 251 255 259 262 267 272 273 269 266 264 264 265 267 268 268 267 266 266 267 268 269 271 272 273 274 274 275 276 278 280 281 281 281 280 278 275 271 268 265 262 261 259 257 256 253 253 254 256 259 261
265 268 272 274 276 274 269 272 276 274 272 275 274 271 267 268 266 251 241 246 257 260 259 262 257 239 228 234 243 242 242 242 244 246 249 253 256 260 262 263 263 259 260 262 259 259 263 265 266 267 265 262 261 261 263 265 266 268 270 273 274 275 277 278 279 279 280 281 281 280 278 275 272 268 264 262 260 259 258 256 255 255 255 257 259
266 267 268 270 271 272 270 270 272 269 267 269 270 272 266 259 260 256 248 251 260 259 253 254 251 234 224 232 246 246 240 238 241 244 247 251 255 259 263 262 257 257 262 263 257 256 261 263 265 265 262 259 256 255 256 257 259 260 261 264 267 271 274 276 277 278 279 279 279 279 279 278 276 273 270 266 263 261 259 258 258 257 257 258 260
264 266 267 269 270 272 274 275 275 271 267 268 269 272 267 255 256 256 249 250 253 248 243 242 238 227 225 235 244 239 236 238 242 244 244 246 250 257 263 265 266 270 274 267 254 253 257 259 261 262 261 258 255 253 253 253 254 255 255 257 259 263 266 269 271 273 274 275 276 277 278 278 278 277 275 273 270 267 264 262 260 259 258 259 260
261 263 264 266 267 270 271 272 276 275 270 268 268 273 269 256 255 255 244 242 241 234 228 224 216 213 220 228 232 233 236 238 238 237 239 242 246 251 256 262 268 276 280 266 249 250 255 258 260 261 262 261 258 255 253 253 254 254 256 258 260 263 264 266 266 267 268 269 271 272 273 274 274 273 274 273 272 271 270 268 266 264 263 262 262
257 258 259 261 263 265 264 264 269 270 268 267 265 268 268 255 250 251 241 231 221 211 208 208 209 212 219 225 227 228 228 228 228 232 238 244 248 250 253 258 263 267 267 259 250 250 254 256 258 262 264 263 258 255 252 252 254 256 258 262 265 267 268 269 269 268 267 266 267 268 268 269 269 268 268 268 268 268 269 269 268 267 267 266 266
253 253 254 257 259 263 264 264 267 265 264 268 265 263 270 260 248 247 240 224 213 214 216 215 217 219 219 219 220 219 219 223 229 234 240 246 250 253 255 258 261 262 260 256 251 249 250 251 253 259 263 262 257 253 251 250 252 256 259 262 265 268 269 271 272 273 273 271 269 267 266 266 266 266 266 264 263 263 263 263 264 265 265 265 265
249 249 251 254 257 260 262 263 267 264 262 269 270 265 268 258 241 238 236 233 235 235 226 215 212 212 213 214 216 217 220 224 229 232 237 244 249 253 255 257 259 262 263 261 256 252 250 249 250 255 261 262 258 253 251 250 251 254 256 258 259 264 268 271 273 274 275 274 272 269 267 266 265 264 264 264 264 262 261 261 261 262 264 265 266
247 248 249 252 256 261 264 264 267 269 267 272 278 274 269 258 243 238 238 241 242 229 210 203 204 206 211 214 216 217 220 223 227 232 237 243 247 251 254 256 258 262 265 266 263 260 256 251 248 251 258 260 257 252 248 246 248 251 253 254 256 262 268 271 273 273 273 273 273 271 270 268 267 266 266 266 267 267 267 267 267 267 267 268 269
247 249 251 254 259 264 268 267 269 273 275 278 283 283 277 270 264 258 249 242 229 207 197 199 202 207 212 216 218 220 223 227 233 238 241 243 245 248 252 255 258 260 263 265 265 263 260 255 249 248 253 255 251 247 245 247 252 255 256 256 258 261 265 267 269 269 269 270 271 272 274 273 271 270 269 271 272 272 272 273 274 275 275 275 274
248 249 252 255 260 265 270 271 271 275 280 282 282 283 283 280 270 257 245 234 218 201 195 197 202 209 214 217 220 223 227 231 236 240 242 243 245 247 251 254 255 256 259 261 263 262 260 257 252 248 249 250 247 245 248 255 261 262 260 260 262 264 265 266 265 265 265 266 268 270 274 275 273 271 270 272 273 274 275 275 276 278 279 280 280
247 249 252 256 260 266 272 275 276 277 279 282 282 280 281 279 267 247 233 223 211 200 198 203 208 212 217 222 225 227 231 234 237 239 240 241 243 246 249 251 251 251 254 257 259 260 260 260 258 253 249 249 248 248 252 259 262 261 259 260 263 265 266 266 265 264 265 265 267 269 271 271 272 272 272 272 273 275 276 278 279 280 281 281 280
247 248 250 254 259 265 271 273 273 274 276 278 280 276 270 265 259 248 234 221 212 208 210 217 222 223 223 224 227 230 232 234 237 239 240 241 241 243 245 247 248 247 248 251 254 257 259 261 259 254 250 250 251 251 256 262 262 259 257 258 259 261 263 264 265 266 266 266 268 270 270 268 268 269 270 271 272 274 276 277 279 280 280 280 280
250 251 252 255 258 262 265 265 264 266 270 273 273 269 263 255 249 245 239 233 227 225 227 233 237 236 232 228 228 229 231 236 238 239 240 242 242 244 246 248 248 246 247 249 252 253 255 256 256 254 252 252 254 256 260 263 261 258 256 257 258 260 262 263 264 265 266 266 266 267 266 264 263 264 266 268 269 270 272 273 276 278 278 277 276
252 252 251 253 255 257 259 260 261 263 265 269 270 268 265 258 252 249 247 246 244 243 245 246 245 242 236 232 229 227 230 237 241 241 242 243 243 245 249 251 251 250 251 253 256 255 252 252 252 253 255 257 259 261 263 262 261 258 257 257 257 257 258 260 262 264 264 264 263 262 262 261 261 261 263 265 265 265 266 268 272 274 275 275 274
254 253 251 250 250 252 254 257 261 263 264 265 267 266 265 261 257 255 254 255 255 256 258 259 255 250 244 238 234 233 236 242 246 247 247 247 248 249 252 254 255 256 256 256 257 255 253 254 256 258 259 260 261 262 262 261 261 260 257 255 254 254 256 259 264 266 266 264 263 261 261 261 261 262 262 262 263 263 265 268 271 272 272 273 273
255 254 252 251 251 251 253 255 259 261 262 262 263 264 265 264 262 260 258 257 257 257 258 261 261 260 258 253 246 243 243 246 252 256 256 256 257 257 257 257 257 259 259 256 254 255 256 259 261 262 262 262 262 261 259 259 260 260 258 256 255 255 257 260 265 268 267 265 264 263 263 263 263 263 264 264 264 265 267 270 272 272 272 271 269
254 254 253 253 253 254 254 254 256 258 259 260 260 261 261 262 262 262 261 259 258 258 258 259 261 261 262 259 254 251 249 250 254 258 260 262 263 262 262 261 260 261 260 257 257 259 260 261 262 262 261 261 260 259 258 257 257 257 257 257 257 257 259 262 266 267 267 266 265 264 264 264 264 264 266 267 267 267 268 269 270 270 270 269 267
251 252 253 253 254 255 256 256 256 256 257 258 259 260 260 261 261 261 261 260 260 260 260 260 261 261 261 261 259 257 256 255 256 258 260 262 263 262 262 262 263 264 263 261 263 264 263 261 260 260 259 259 258 257 257 256 257 257 257 258 259 260 261 264 265 266 266 265 264 264 265 265 265 265 266 267 267 268 269 269 269 269 268 268 267
249 249 250 251 253 255 256 258 258 259 259 259 259 260 261 262 262 262 262 261 261 261 261 261 261 261 261 261 260 260 259 258 259 259 260 261 261 261 260 260 262 264 264 264 266 266 264 260 259 258 257 257 256 256 256 256 257 258 259 260 261 262 264 266 266 266 265 265 264 265 265 267 267 268 267 267 266 266 266 267 267 268 268 268 268
252 251 251 251 253 255 256 258 260 262 263 264 265 265 265 265 265 265 265 265 264 264 263 262 261 261 260 260 259 259 259 259 259 258 258 258 259 260 260 259 259 259 260 261 262 262 261 260 258 257 256 255 255 255 255 256 257 258 259 261 263 264 266 266 267 267 266 266 266 266 267 268 269 270 270 269 267 267 267 267 268 268 268 269 269
256 255 254 255 255 257 259 261 263 265 266 268 270 270 270 269 268 267 267 267 267 266 263 260 258 258 258 258 258 259 259 259 258 257 257 257 257 258 259 259 258 258 258 257 256 255 257 258 259 259 257 256 255 255 255 256 257 258 260 261 263 264 265 266 266 266 266 267 268 269 269 270 271 271 271 271 270 269 269 269 270 271 271 271 272
262 260 258 258 258 259 262 265 267 269 270 270 271 270 269 268 267 268 268 267 266 264 261 257 256 256 256 256 257 258 260 260 259 259 258 258 258 257 257 257 257 258 258 257 256 255 257 258 260 260 259 258 257 256 257 258 258 259 260 262 263 264 265 266 266 266 266 266 268 270 271 271 271 271 271 272 271 271 270 270 271 272 273 273 273
259 260 259 258 258 260 263 265 266 266 266 264 262 262 265 266 266 267 267 265 263 261 259 258 258 258 258 258 259 260 261 261 261 261 261 260 259 258 258 257 257 257 256 256 256 257 258 259 259 260 259 259 259 259 259 259 259 261 262 264 265 266 267 268 268 268 268 269 269 270 271 271 271 271 271 271 272 272 272 272 272 273 273 274 275
253 255 257 258 260 262 262 260 257 256 254 252 251 252 255 258 259 261 261 261 260 260 260 261 262 262 262 262 263 263 262 261 261 261 261 259 257 256 256 256 255 255 255 255 255 256 257 258 259 259 260 260 261 261 260 260 261 262 264 265 266 267 269 270 271 271 271 272 272 272 272 272 272 272 271 271 271 272 273 274 274 274 274 275 275
254 254 256 258 260 260 260 259 258 257 255 254 254 256 257 258 260 261 261 260 261 262 263 264 264 265 265 266 266 265 265 264 263 261 258 256 253 252 252 253 254 255 255 255 255 255 256 257 258 259 260 260 261 260 260 261 261 262 262 263 266 269 272 273 273 272 272 273 274 275 276 276 275 274 273 272 272 273 275 276 276 276 276 276 276
255 255 256 257 258 258 259 260 261 261 260 260 260 261 262 263 263 264 263 262 262 262 263 264 264 265 266 267 266 266 266 265 263 260 256 252 249 247 248 252 256 257 257 256 256 256 256 256 257 257 258 258 258 258 258 259 260 259 261 264 269 272 273 273 273 273 274 274 275 277 278 278 277 276 275 274 275 276 277 278 278 278 277 277 277
255 256 256 257 258 259 260 261 262 262 262 263 264 264 265 266 266 267 267 266 265 265 264 264 265 265 265 265 265 265 264 264 262 260 257 254 252 251 250 254 258 260 259 259 259 258 257 257 257 257 257 257 257 257 258 258 259 260 262 266 269 272 272 272 273 273 274 274 274 276 278 279 278 278 278 277 277 278 279 280 280 279 279 279 279
257 257 258 258 259 259 260 261 262 263 263 263 264 265 265 266 267 267 268 268 268 268 267 267 266 266 266 265 265 265 264 264 263 262 260 259 258 258 259 259 261 262 261 260 260 260 259 259 260 260 260 259 259 259 259 258 259 261 263 265 268 270 271 272 273 273 273 273 274 275 277 278 279 279 279 279 279 279 280 280 280 280 279 279 279
257 257 258 259 259 260 261 261 262 262 263 263 263 263 264 264 265 265 266 267 267 268 268 269 269 269 268 268 267 267 266 266 265 264 263 262 262 261 262 262 263 264 264 263 262 260 258 258 259 260 260 260 260 260 259 259 261 263 264 265 267 269 271 272 274 274 274 275 276 277 278 279 279 279 279 280 280 280 280 280 280 279 279 278 278
257 258 258 259 259 260 260 261 261 261 262 262 263 264 264 265 265 265 266 267 267 268 269 269 270 270 270 270 270 269 269 269 268 268 267 266 265 265 264 263 263 264 264 264 263 262 260 259 259 259 259 261 262 263 264 265 266 267 267 267 268 269 272 273 275 276 276 277 277 278 279 279 279 279 279 279 279 279 279 279 279 279 278 277 277
257 257 258 258 259 259 260 260 260 261 261 262 263 264 265 265 266 267 268 268 268 269 269 269 270 271 271 271 271 271 270 270 270 269 269 268 268 267 267 266 265 264 264 264 263 262 262 261 260 260 260 261 262 263 263 265 267 267 267 267 269 271 273 274 275 275 276 277 278 279 279 279 279 279 279 279 279 279 278 278 278 278 278 277 277
258 258 258 258 259 259 259 260 261 262 263 263 263 264 265 266 266 267 268 269 269 269 269 269 270 271 271 271 271 271 271 271 270 270 269 269 268 268 267 267 266 265 264 263 262 262 261 261 261 261 261 261 261 261 261 262 263 264 265 267 269 271 272 273 274 275 276 276 277 278 278 278 278 278 278 278 278 278 278 278 278 278 277 277 277
259 259 260 260 260 260 260 261 262 264 264 264 264 265 265 266 266 267 267 268 268 268 268 268 269 270 271 271 270 269 268 268 268 268 268 268 267 267 267 266 265 264 264 263 262 262 262 261 261 262 261 261 261 261 261 261 262 263 265 267 269 270 271 272 274 275 276 276 276 276 277 276 276 276 276 276 277 277 277 277 277 277 277 277 277
262 262 262 263 263 263 263 264 265 265 266 266 267 267 268 268 268 268 269 270 270 270 270 270 271 271 271 271 270 268 266 265 265 265 265 265 265 265 265 264 264 263 263 263 262 261 261 262 262 262 262 262 262 262 263 263 264 265 267 268 269 270 271 272 273 274 274 275 275 275 275 274 274 274 275 275 275 276 276 277 276 276 276 277 277
265 265 265 265 265 265 265 266 267 267 267 267 267 268 269 269 270 271 271 272 272 272 272 271 271 271 271 270 269 268 266 266 265 264 263 262 262 262 261 261 261 261 261 261 261 261 261 261 262 262 263 263 264 265 266 267 268 268 269 269 270 271 271 272 272 272 272 273 273 273 272 272 272 273 273 273 274 274 275 275 276 276 276 276 275
261 261 261 261 261 261 261 262 263 264 265 266 268 269 270 271 272 272 272 272 271 270 270 269 269 268 268 268 267 266 266 265 264 264 263 262 261 260 259 259 259 259 258 259 260 260 260 260 260 261 262 263 265 266 267 269 269 270 271 271 271 271 271 271 271 271 271 271 271 271 271 271 271 271 271 272 272 273 273 274 275 275 275 274 274
262 262 262 262 262 262 263 264 265 267 269 270 271 271 272 272 272 272 271 270 270 269 268 267 266 266 266 266 265 265 265 264 263 263 262 261 261 260 259 258 258 258 257 257 258 258 259 259 259 260 261 262 264 265 266 267 267 269 270 271 271 271 271 271 271 271 270 270 269 269 269 269 269 269 269 270 271 271 272 273 273 273 273 273 272
Height
5779 5780 5780 5781 5781 5782 5782 5782 5782 5782 5782 5781 5781 5781 5780 5780 5780 5778 5777 5777 5778 5779 5780 5781 5782 5784 5785 5787 5788 5789 5790 5790 5791 5791 5791 5791 5791 5791 5791 5791 5791 5791 5791 5791 5791 5792 5792 5792 5792 5792 5792 5793 5793 5793 5793 5793 5793 5794 5795 5795 5796 5796 5797 5797 5798 5798 5798 5798 5798 5799 5799 5799 5799 5799 5800 5799 5799 5799 5799 5799 5800 5801 5801 5802 5801
5778 5778 5778 5779 5779 5779 5779 5779 5778 5778 5778 5779 5779 5779 5779 5778 5776 5776 5775 5774 5775 5777 5778 5780 5781 5783 5785 5786 5787 5788 5788 5789 5789 5789 5790 5790 5790 5790 5790 5790 5790 5790 5790 5790 5790 5790 5790 5790 5790 5790 5790 5791 5791 5791 5792 5792 5792 5793 5794 5794 5795 5796 5796 5796 5796 5796 5797 5797 5797 5798 5798 5798 5798 5798 5798 5798 5798 5797 5797 5797 5798 5799 5799 5800 5799
5776 5777 5776 5776 5776 5775 5775 5773 5773 5774 5775 5776 5777 5777 5777 5776 5775 5774 5772 5771 5774 5776 5778 5780 5781 5782 5784 5785 5785 5786 5787 5788 5788 5788 5788 5788 5788 5788 5788 5788 5788 5788 5788 5788 5788 5788 5788 5788 5788 5788 5789 5789 5789 5790 5790 5790 5791 5792 5792 5793 5794 5794 5795 5795 5795 5795 5796 5796 5796 5796 5796 5797 5796 5796 5796 5796 5796 5796 5796 5796 5796 5797 5797 5798 5797
5774 5775 5774 5773 5772 5770 5769 5768 5769 5771 5772 5774 5775 5775 5776 5777 5777 5776 5773 5773 5775 5776 5777 5779 5780 5782 5782 5783 5784 5785 5786 5787 5787 5787 5787 5787 5787 5787 5787 5787 5787 5787 5787 5787 5787 5787 5787 5787 5787 5787 5787 5787 5788 5788 5788 5789 5789 5790 5791 5791 5792 5792 5793 5794 5794 5794 5794 5794 5794 5794 5795 5795 5795 5795 5795 5794 5794 5794 5794 5794 5795 5795 5796 5796 5795
5773 5772 5771 5769 5767 5764 5764 5764 5766 5769 5771 5772 5774 5775 5776 5776 5777 5776 5775 5777 5777 5776 5777 5779 5780 5780 5781 5782 5783 5784 5785 5785 5786 5786 5786 5786 5786 5786 5786 5786 5786 5786 5786 5786 5786 5785 5785 5785 5785 5785 5786 5786 5786 5787 5787 5787 5788 5788 5789 5790 5790 5790 5791 5791 5792 5792 5792 5792 5792 5792 5793 5793 5793 5793 5793 5792 5792 5793 5792 5793 5793 5794 5794 5794 5794
5771 5770 5769 5765 5762 5762 5762 5762 5764 5768 5771 5772 5773 5773 5773 5773 5773 5772 5773 5774 5775 5775 5777 5778 5779 5779 5780 5781 5782 5783 5783 5783 5784 5784 5784 5784 5784 5784 5785 5785 5785 5785 5785 5785 5785 5784 5784 5784 5784 5784 5784 5784 5785 5785 5785 5786 5786 5786 5787 5787 5787 5788 5788 5789 5789 5789 5789 5789 5790 5790 5790 5790 5791 5791 5790 5790 5790 5791 5791 5790 5791 5792 5793 5792 5792
5769 5768 5764 5760 5759 5763 5764 5764 5766 5769 5771 5772 5772 5771 5771 5770 5770 5770 5772 5773 5773 5774 5776 5776 5777 5778 5778 5779 5780 5781 5781 5781 5782 5782 5782 5782 5782 5782 5783 5783 5783 5783 5783 5783 5783 5783 5783 5782 5782 5782 5782 5782 5782 5783 5784 5784 5784 5784 5784 5785 5785 5785 5786 5786 5786 5787 5787 5787 5787 5788 5788 5788 5788 5788 5788 5787 5787 5789 5789 5788 5788 5789 5790 5789 5789
5766 5763 5759 5759 5762 5765 5766 5766 5766 5768 5769 5770 5770 5770 5769 5768 5768 5769 5770 5771 5772 5773 5774 5775 5776 5776 5777 5777 5778 5779 5779 5779 5780 5779 5779 5779 5780 5780 5781 5781 5781 5781 5781 5781 5781 5781 5781 5781 5780 5780 5780 5780 5780 5781 5781 5782 5782 5782 5782 5782 5783 5783 5783 5784 5784 5784 5784 5785 5785 5785 5785 5785 5786 5786 5785 5785 5785 5786 5786 5786 5786 5787 5787 5786 5786
5762 5759 5759 5762 5765 5765 5765 5765 5764 5765 5766 5766 5767 5767 5764 5763 5764 5766 5767 5769 5770 5771 5772 5773 5775 5775 5775 5775 5776 5777 5777 5777 5777 5777 5777 5777 5777 5778 5779 5780 5780 5780 5779 5779 5779 5779 5779 5779 5778 5778 5778 5778 5779 5779 5779 5779 5780 5780 5780 5780 5780 5780 5781 5781 5782 5782 5782 5782 5783 5783 5783 5783 5783 5783 5783 5783 5783 5783 5783 5783 5783 5783 5784 5784 5784
5759 5759 5760 5763 5763 5763 5762 5762 5763 5763 5762 5762 5763 5761 5759 5759 5761 5762 5764 5767 5768 5769 5770 5772 5773 5773 5773 5774 5774 5775 5775 5775 5775 5775 5775 5775 5776 5777 5777 5778 5778 5778 5778 5777 5777 5777 5777 5777 5777 5777 5777 5777 5777 5777 5777 5778 5778 5778 5778 5778 5778 5778 5779 5779 5779 5780 5780 5780 5780 5781 5781 5781 5781 5781 5781 5781 5780 5780 5780 5780 5780 5781 5781 5781 5781
5757 5759 5760 5760 5760 5761 5760 5758 5759 5759 5758 5759 5759 5758 5760 5761 5760 5759 5761 5764 5766 5767 5768 5770 5771 5771 5771 5772 5772 5773 5773 5773 5773 5773 5773 5774 5774 5775 5775 5776 5776 5776 5776 5775 5775 5775 5775 5776 5776 5776 5775 5775 5775 5775 5776 5776 5776 5776 5776 5776 5777 5777 5777 5777 5777 5778 5778 5778 5778 5778 5778 5779 5779 5778 5778 5778 5778 5778 5778 5778 5778 5778 5778 5778 5778
5756 5758 5758 5758 5757 5757 5756 5755 5755 5757 5758 5759 5759 5759 5761 5763 5763 5761 5761 5763 5764 5765 5766 5767 5768 5769 5769 5769 5770 5771 5772 5772 5772 5771 5771 5771 5772 5773 5773 5774 5774 5774 5774 5774 5773 5774 5774 5774 5774 5774 5774 5774 5774 5774 5774 5774 5774 5775 5775 5775 5775 5775 5775 5775 5775 5776 5776 5776 5776 5776 5776 5776 5776 5776 5776 5776 5776 5776 5776 5776 5776 5776 5775 5775 5775
5754 5756 5756 5755 5755 5753 5751 5752 5755 5757 5759 5759 5760 5759 5760 5762 5764 5763 5761 5762 5763 5763 5763 5764 5765 5766 5766 5767 5768 5769 5770 5770 5769 5769 5769 5769 5770 5771 5771 5772 5772 5772 5772 5772 5772 5772 5773 5773 5773 5773 5773 5772 5772 5772 5772 5772 5772 5773 5773 5773 5773 5773 5773 5773 5773 5774 5774 5774 5774 5775 5774 5774 5774 5774 5774 5774 5774 5774 5774 5774 5773 5773 5773 5773 5773
5751 5753 5753 5752 5751 5749 5748 5749 5753 5757 5757 5757 5758 5757 5758 5759 5760 5759 5759 5760 5760 5760 5761 5760 5760 5762 5764 5765 5766 5767 5767 5767 5767 5767 5767 5767 5768 5768 5769 5770 5770 5770 5770 5770 5770 5771 5771 5771 5771 5771 5771 5771 5771 5770 5770 5770 5770 5770 5771 5771 5771 5771 5771 5771 5772 5772 5772 5772 5773 5773 5773 5772 5772 5772 5772 5772 5771 5771 5771 5771 5771 5771 5771 5770 5770
5748 5750 5750 5749 5747 5746 5745 5746 5749 5753 5755 5755 5755 5755 5756 5756 5756 5756 5756 5757 5756 5757 5758 5758 5757 5759 5761 5763 5764 5764 5764 5764 5764 5765 5765 5765 5766 5766 5766 5767 5767 5768 5768 5768 5768 5769 5769 5769 5769 5769 5769 5769 5769 5769 5769 5768 5768 5768 5768 5769 5769 5769 5769 5770 5770 5770 5770 5771 5771 5771 5771 5770 5770 5770 5770 5770 5769 5769 5769 5768 5768 5768 5768 5768 5768
5746 5746 5747 5746 5744 5742 5741 5742 5744 5748 5752 5752 5752 5752 5752 5753 5753 5753 5753 5754 5754 5755 5756 5756 5755 5756 5759 5760 5761 5762 5762 5762 5762 5763 5763 5763 5764 5764 5764 5764 5764 5765 5766 5767 5767 5767 5767 5767 5767 5767 5767 5767 5767 5767 5767 5767 5766 5766 5766 5766 5767 5767 5767 5768 5768 5768 5769 5769 5769 5769 5769 5768 5768 5768 5768 5768 5768 5767 5767 5767 5766 5766 5766 5766 5766
5743 5743 5743 5743 5741 5739 5739 5739 5740 5743 5747 5748 5748 5748 5749 5750 5750 5750 5750 5751 5752 5752 5752 5753 5753 5755 5757 5758 5759 5759 5759 5760 5760 5760 5761 5761 5761 5762 5762 5761 5761 5762 5764 5765 5765 5765 5765 5765 5765 5764 5764 5764 5764 5764 5764 5764 5765 5765 5764 5764 5764 5765 5765 5765 5766 5766 5766 5767 5767 5767 5767 5767 5767 5766 5766 5766 5766 5766 5765 5765 5765 5764 5764 5764 5764
5740 5740 5740 5739 5738 5738 5738 5737 5737 5740 5743 5744 5744 5744 5745 5746 5747 5747 5747 5748 5749 5749 5749 5750 5751 5753 5754 5756 5756 5756 5757 5757 5758 5758 5759 5759 5759 5760 5760 5759 5759 5760 5761 5762 5763 5763 5763 5763 5763 5763 5763 5763 5763 5763 5763 5763 5763 5763 5763 5763 5763 5763 5763 5763 5763 5764 5764 5764 5765 5765 5765 5765 5765 5765 5764 5764 5764 5764 5764 5764 5763 5763 5763 5762 5762
5737 5737 5736 5735 5735 5735 5735 5735 5735 5737 5739 5740 5740 5741 5742 5743 5744 5744 5745 5746 5746 5746 5747 5748 5749 5750 5751 5752 5753 5754 5754 5755 5755 5756 5757 5757 5757 5757 5758 5758 5758 5758 5759 5760 5760 5761 5761 5761 5761 5761 5761 5761 5761 5761 5761 5761 5761 5761 5761 5761 5761 5761 5761 5761 5762 5762 5762 5762 5762 5762 5763 5763 5763 5763 5763 5763 5762 5762 5762 5762 5762 5762 5761 5761 5761
5734 5734 5733 5732 5732 5732 5732 5732 5733 5734 5735 5736 5737 5737 5738 5738 5739 5740 5742 5743 5743 5743 5744 5745 5746 5747 5748 5749 5750 5751 5751 5752 5753 5754 5755 5755 5755 5755 5756 5756 5756 5756 5757 5757 5758 5758 5758 5758 5759 5759 5759 5759 5759 5759 5759 5759 5759 5759 5759 5759 5759 5759 5759 5759 5760 5760 5760 5761 5761 5760 5761 5761 5761 5761 5761 5761 5761 5760 5760 5760 5760 5759 5759 5759 5759
5731 5731 5730 5730 5729 5729 5729 5730 5731 5731 5731 5732 5733 5734 5735 5735 5735 5736 5738 5740 5740 5740 5740 5741 5743 5744 5745 5746 5747 5748 5748 5749 5750 5751 5752 5753 5753 5753 5753 5754 5754 5754 5754 5755 5756 5756 5756 5756 5757 5757 5757 5757 5757 5757 5757 5757 5757 5757 5757 5757 5757 5757 5758 5758 5758 5758 5759 5759 5759 5759 5758 5758 5758 5758 5758 5758 5758 5758 5758 5758 5758 5758 5757 5757 5757
5728 5728 5727 5727 5727 5727 5727 5728 5729 5728 5729 5730 5731 5732 5732 5733 5733 5733 5735 5736 5737 5737 5738 5739 5740 5741 5743 5743 5744 5745 5746 5747 5748 5749 5750 5750 5750 5751 5751 5751 5752 5752 5752 5753 5753 5754 5754 5754 5754 5755 5755 5755 5755 5755 5755 5755 5755 5755 5755 5755 5756 5756 5756 5756 5756 5756 5756 5756 5756 5756 5756 5756 5756 5756 5756 5756 5756 5756 5756 5756 5756 5756 5755 5755 5755
5725 5725 5725 5725 5725 5724 5725 5726 5727 5727 5726 5727 5728 5729 5730 5731 5731 5731 5732 5733 5734 5735 5736 5737 5738 5739 5740 5741 5742 5742 5743 5744 5745 5746 5747 5747 5748 5748 5748 5749 5749 5749 5750 5750 5751 5751 5751 5751 5752 5753 5753 5753 5753 5754 5754 5754 5753 5753 5754 5754 5754 5754 5754 5754 5754 5754 5754 5754 5754 5754 5753 5753 5753 5753 5753 5753 5753 5753 5754 5753 5753 5753 5753 5753 5752
5722 5723 5723 5723 5723 5723 5723 5724 5724 5724 5724 5725 5726 5727 5728 5728 5729 5729 5730 5730 5731 5732 5733 5735 5736 5737 5738 5738 5739 5740 5741 5742 5742 5743 5743 5744 5745 5745 5746 5746 5747 5747 5747 5747 5748 5748 5748 5748 5749 5750 5750 5751 5751 5751 5752 5752 5752 5752 5752 5752 5752 5752 5751 5752 5752 5752 5752 5751 5751 5751 5751 5751 5751 5750 5750 5750 5750 5750 5750 5751 5751 5750 5750 5750 5749
5720 5720 5721 5721 5721 5721 5721 5721 5721 5722 5722 5723 5724 5725 5725 5726 5726 5727 5728 5728 5729 5730 5731 5733 5734 5734 5735 5736 5737 5737 5738 5738 5739 5739 5740 5741 5742 5742 5743 5744 5744 5744 5744 5745 5745 5745 5745 5745 5746 5747 5747 5748 5749 5749 5749 5749 5749 5749 5749 5749 5749 5749 5749 5749 5748 5749 5749 5749 5749 5748 5748 5748 5748 5748 5747 5747 5747 5747 5747 5747 5747 5747 5747 5747 5747
5717 5718 5718 5718 5719 5719 5719 5719 5719 5720 5720 5721 5722 5723 5723 5724 5725 5725 5726 5727 5728 5729 5730 5731 5732 5733 5733 5734 5734 5735 5735 5736 5736 5737 5737 5738 5739 5740 5741 5741 5741 5742 5742 5742 5742 5742 5742 5742 5742 5743 5744 5745 5745 5746 5746 5747 5747 5747 5747 5746 5746 5746 5746 5746 5746 5746 5746 5746 5746 5746 5746 5745 5745 5745 5745 5744 5744 5744 5744 5744 5744 5744 5744 5744 5743
5714 5715 5716 5716 5716 5717 5717 5718 5718 5718 5719 5719 5720 5721 5722 5722 5723 5724 5725 5726 5726 5727 5728 5729 5730 5730 5731 5732 5732 5732 5733 5733 5734 5735 5735 5736 5737 5738 5738 5738 5739 5739 5739 5739 5739 5740 5740 5739 5739 5740 5740 5741 5742 5743 5743 5743 5744 5743 5743 5743 5743 5743 5743 5743 5743 5743 5743 5743 5743 5743 5742 5742 5742 5741 5741 5741 5742 5742 5741 5741 5741 5741 5740 5740 5740
5711 5712 5713 5714 5714 5715 5715 5716 5716 5716 5717 5717 5718 5718 5719 5720 5721 5722 5723 5724 5724 5725 5725 5726 5727 5727 5728 5729 5730 5730 5731 5731 5732 5734 5733 5733 5734 5735 5735 5735 5735 5736 5736 5736 5737 5737 5737 5737 5737 5737 5737 5738 5739 5739 5740 5740 5740 5740 5740 5740 5740 5740 5740 5740 5739 5739 5739 5739 5739 5739 5739 5738 5738 5739 5739 5738 5738 5738 5738 5738 5738 5737 5737 5737 5737
5709 5709 5710 5711 5712 5713 5713 5714 5714 5714 5715 5715 5716 5716 5717 5717 5718 5719 5720 5721 5721 5722 5723 5724 5724 5725 5726 5726 5727 5728 5728 5729 5730 5731 5730 5730 5731 5732 5732 5732 5732 5732 5733 5733 5733 5734 5734 5734 5734 5734 5734 5734 5735 5735 5736 5736 5736 5736 5736 5736 5736 5736 5736 5736 5735 5736 5736 5735 5735 5736 5735 5734 5734 5735 5735 5735 5735 5734 5734 5734 5734 5734 5733 5733 5733
5705 5706 5707 5708 5709 5710 5710 5711 5711 5712 5712 5713 5713 5713 5714 5714 5715 5716 5717 5718 5718 5719 5720 5720 5721 5722 5723 5724 5725 5726 5726 5726 5727 5727 5726 5727 5727 5728 5729 5729 5729 5729 5729 5729 5729 5730 5731 5730 5730 5730 5730 5730 5731 5731 5731 5732 5732 5732 5732 5732 5732 5732 5732 5731 5731 5731 5731 5731 5731 5731 5731 5730 5730 5730 5730 5731 5731 5730 5729 5729 5729 5729 5729 5728 5728
5702 5702 5703 5704 5705 5706 5707 5708 5708 5709 5709 5710 5710 5711 5711 5711 5711 5712 5713 5714 5715 5715 5716 5717 5718 5718 5719 5720 5721 5722 5723 5723 5723 5723 5723 5723 5724 5724 5725 5725 5725 5725 5725 5725 5725 5725 5726 5726 5726 5726 5726 5726 5726 5726 5727 5727 5728 5728 5728 5727 5727 5727 5727 5727 5727 5727 5727 5727 5727 5727 5726 5726 5726 5726 5725 5726 5725 5724 5724 5724 5724 5724 5724 5723 5723
5699 5699 5699 5700 5700 5701 5702 5703 5704 5705 5706 5706 5707 5707 5707 5707 5708 5708 5709 5709 5710 5710 5711 5712 5713 5714 5714 5715 5716 5716 5717 5718 5719 5719 5719 5719 5719 5719 5720 5720 5720 5720 5720 5720 5720 5721 5721 5720 5720 5721 5721 5721 5721 5722 5722 5722 5723 5723 5723 5723 5722 5722 5722 5722 5722 5722 5722 5722 5722 5722 5722 5721 5721 5721 5720 5720 5720 5719 5719 5719 5718 5718 5718 5718 5717
5694 5695 5695 5695 5696 5697 5697 5698 5699 5700 5700 5701 5702 5702 5703 5703 5703 5703 5704 5704 5705 5706 5706 5707 5708 5708 5709 5709 5710 5710 5711 5712 5713 5713 5713 5713 5712 5713 5714 5715 5715 5715 5714 5714 5714 5715 5715 5715 5715 5715 5716 5716 5716 5716 5717 5717 5717 5717 5717 5717 5717 5717 5717 5717 5718 5718 5717 5717 5717 5717 5717 5716 5716 5716 5715 5715 5714 5714 5713 5713 5713 5712 5712 5712 5712
5690 5690 5691 5691 5692 5692 5693 5693 5694 5694 5695 5696 5697 5697 5698 5698 5698 5698 5698 5698 5699 5700 5701 5701 5702 5702 5702 5703 5703 5703 5704 5705 5706 5706 5707 5707 5707 5707 5708 5709 5710 5709 5709 5709 5708 5708 5708 5708 5709 5709 5710 5710 5710 5711 5711 5711 5711 5711 5712 5712 5712 5712 5712 5712 5712 5712 5712 5712 5711 5711 5711 5711 5710 5710 5710 5709 5709 5708 5708 5707 5707 5707 5706 5706 5706
5684 5685 5686 5687 5687 5687 5688 5688 5689 5690 5690 5691 5691 5691 5692 5692 5691 5691 5692 5692 5693 5693 5694 5694 5695 5695 5695 5696 5696 5697 5697 5698 5699 5699 5699 5700 5700 5701 5702 5702 5703 5703 5703 5703 5703 5702 5702 5702 5702 5703 5704 5704 5705 5705 5705 5705 5706 5706 5707 5707 5707 5707 5707 5707 5707 5707 5707 5706 5706 5706 5706 5705 5705 5705 5704 5704 5703 5703 5703 5702 5701 5701 5700 5700 5700
5678 5679 5680 5681 5681 5682 5683 5684 5684 5684 5684 5684 5684 5684 5684 5684 5685 5685 5685 5685 5686 5687 5687 5688 5688 5689 5690 5690 5691 5691 5691 5692 5692 5692 5692 5693 5693 5694 5695 5695 5696 5696 5696 5697 5697 5697 5697 5697 5697 5697 5697 5698 5699 5699 5700 5700 5701 5701 5701 5701 5701 5701 5701 5701 5701 5702 5701 5701 5701 5701 5700 5700 5700 5700 5699 5698 5698 5697 5697 5697 5696 5695 5695 5694 5694
5674 5673 5673 5674 5676 5677 5678 5679 5679 5679 5679 5678 5678 5678 5678 5678 5679 5679 5679 5679 5680 5681 5682 5682 5683 5684 5684 5685 5685 5686 5686 5686 5686 5687 5687 5687 5687 5687 5688 5689 5689 5689 5690 5690 5690 5690 5691 5690 5690 5691 5691 5692 5693 5693 5694 5695 5695 5696 5695 5695 5695 5696 5696 5696 5696 5696 5696 5696 5696 5696 5695 5694 5694 5694 5693 5692 5692 5691 5691 5691 5690 5689 5689 5688 5687
5669 5669 5668 5669 5670 5671 5672 5673 5673 5673 5673 5673 5672 5672 5673 5673 5673 5674 5674 5674 5674 5675 5676 5677 5678 5678 5678 5679 5679 5680 5680 5681 5681 5681 5681 5681 5681 5682 5682 5683 5683 5683 5683 5683 5683 5684 5684 5684 5684 5685 5685 5686 5687 5688 5688 5689 5690 5690 5690 5690 5690 5690 5690 5690 5690 5690 5690 5690 5690 5690 5689 5688 5688 5688 5687 5687 5686 5685 5684 5684 5684 5683 5682 5682 5681
5662 5663 5663 5664 5665 5665 5665 5665 5665 5666 5666 5666 5666 5666 5666 5667 5667 5668 5668 5669 5669 5670 5670 5671 5672 5672 5672 5673 5673 5674 5674 5675 5675 5675 5676 5676 5676 5676 5677 5677 5677 5677 5677 5677 5677 5677 5678 5678 5678 5678 5679 5680 5681 5681 5682 5683 5684 5684 5684 5684 5684 5685 5685 5684 5684 5684 5684 5684 5684 5683 5683 5682 5682 5682 5681 5680 5680 5679 5678 5677 5677 5676 5675 5675 5674
5655 5656 5657 5657 5657 5657 5657 5657 5657 5657 5658 5658 5658 5658 5658 5659 5660 5660 5661 5662 5663 5663 5664 5664 5665 5665 5665 5666 5666 5667 5667 5668 5669 5669 5670 5670 5670 5670 5671 5670 5670 5670 5670 5671 5671 5672 5672 5672 5672 5673 5673 5673 5674 5675 5676 5677 5677 5678 5678 5678 5678 5679 5679 5679 5678 5678 5678 5678 5677 5677 5676 5676 5675 5675 5675 5674 5674 5673 5672 5671 5670 5669 5669 5668 5667
5649 5649 5649 5650 5650 5650 5650 5650 5650 5650 5650 5650 5650 5650 5650 5650 5651 5652 5653 5654 5655 5655 5656 5656 5657 5657 5658 5658 5659 5659 5660 5660 5661 5662 5663 5663 5663 5664 5664 5664 5664 5665 5665 5665 5665 5665 5665 5665 5666 5667 5667 5667 5668 5668 5669 5670 5671 5672 5672 5672 5672 5672 5673 5673 5672 5672 5671 5671 5671 5671 5670 5670 5669 5669 5668 5668 5667 5667 5666 5665 5664 5663 5662 5661 5660
5641 5642 5642 5642 5643 5643 5643 5643 5643 5643 5643 5643 5643 5643 5643 5642 5643 5644 5645 5645 5646 5646 5647 5647 5648 5648 5649 5650 5650 5651 5651 5652 5652 5653 5654 5655 5656 5656 5657 5657 5657 5658 5659 5659 5659 5659 5659 5659 5660 5661 5661 5661 5661 5662 5662 5663 5664 5665 5665 5666 5666 5666 5666 5666 5665 5665 5665 5665 5664 5664 5663 5663 5663 5662 5661 5661 5660 5659 5659 5658 5657 5657 5656 5655 5653
5634 5634 5635 5635 5635 5635 5636 5636 5636 5636 5635 5636 5635 5635 5635 5635 5635 5636 5637 5636 5637 5637 5638 5638 5639 5639 5640 5640 5641 5642 5642 5642 5643 5644 5645 5646 5647 5648 5648 5649 5649 5650 5650 5651 5652 5652 5653 5653 5654 5654 5654 5654 5654 5655 5655 5656 5656 5657 5658 5658 5659 5659 5659 5659 5658 5658 5658 5658 5657 5657 5657 5656 5656 5655 5654 5654 5653 5652 5652 5651 5650 5650 5649 5648 5647
5627 5627 5627 5627 5627 5627 5627 5627 5628 5627 5627 5627 5627 5627 5627 5627 5627 5628 5628 5628 5628 5629 5629 5630 5630 5630 5631 5631 5632 5632 5633 5633 5634 5634 5635 5636 5637 5638 5639 5640 5641 5641 5641 5642 5643 5644 5645 5645 5646 5646 5647 5646 5647 5647 5647 5648 5648 5649 5650 5651 5651 5652 5652 5652 5651 5651 5651 5651 5650 5650 5650 5649 5648 5648 5647 5647 5646 5645 5645 5644 5643 5642 5642 5641 5639
5618 5619 5619 5618 5618 5619 5619 5618 5619 5619 5619 5619 5619 5619 5619 5619 5619 5619 5620 5620 5620 5621 5621 5621 5621 5622 5622 5622 5623 5623 5624 5625 5625 5625 5626 5627 5628 5629 5630 5630 5631 5632 5633 5634 5635 5636 5637 5637 5637 5638 5638 5638 5639 5640 5640 5640 5641 5641 5642 5643 5644 5644 5644 5644 5644 5644 5643 5643 5643 5643 5642 5642 5641 5640 5640 5640 5639 5638 5638 5637 5636 5635 5635 5634 5632
5610 5610 5610 5610 5610 5610 5610 5610 5610 5610 5611 5611 5611 5611 5611 5611 5611 5611 5611 5611 5612 5612 5612 5613 5613 5613 5614 5614 5615 5615 5615 5616 5616 5617 5618 5618 5619 5620 5621 5622 5622 5623 5624 5625 5627 5628 5629 5629 5629 5630 5629 5629 5631 5631 5632 5633 5633 5634 5635 5635 5636 5636 5636 5636 5636 5636 5636 5636 5636 5635 5635 5634 5634 5633 5633 5633 5632 5631 5631 5630 5630 5629 5628 5627 5626
5602 5602 5602 5602 5602 5602 5603 5603 5603 5602 5602 5602 5602 5602 5602 5603 5603 5603 5603 5603 5603 5604 5604 5604 5604 5604 5605 5605 5605 5606 5607 5607 5607 5608 5609 5609 5610 5611 5612 5613 5613 5614 5615 5616 5618 5620 5621 5621 5621 5621 5621 5621 5623 5623 5623 5624 5625 5626 5627 5628 5628 5628 5628 5628 5628 5628 5628 5628 5628 5628 5627 5627 5626 5626 5626 5625 5625 5624 5624 5624 5623 5622 5621 5620 5619
5595 5595 5595 5595 5594 5594 5594 5595 5595 5594 5594 5594 5593 5593 5593 5594 5594 5594 5594 5594 5594 5594 5594 5594 5594 5594 5594 5595 5595 5595 5596 5597 5598 5598 5599 5600 5601 5602 5603 5604 5604 5605 5606 5607 5609 5612 5612 5613 5614 5613 5612 5613 5614 5614 5614 5616 5617 5618 5619 5620 5620 5619 5619 5620 5620 5620 5620 5620 5620 5620 5620 5619 5619 5619 5618 5618 5618 5617 5617 5617 5616 5615 5615 5614 5613
5587 5587 5587 5587 5586 5586 5586 5586 5586 5585 5585 5585 5584 5584 5584 5584 5584 5584 5584 5584 5584 5584 5584 5584 5583 5582 5583 5583 5583 5584 5585 5586 5586 5587 5589 5590 5591 5592 5594 5594 5594 5597 5598 5598 5599 5602 5603 5605 5606 5604 5603 5604 5605 5605 5606 5607 5607 5609 5610 5611 5611 5611 5611 5611 5612 5612 5612 5612 5612 5612 5612 5612 5612 5611 5611 5611 5611 5610 5610 5610 5609 5609 5609 5608 5607
5580 5580 5580 5579 5579 5578 5578 5577 5577 5576 5576 5576 5575 5575 5574 5574 5573 5572 5572 5573 5573 5574 5574 5573 5572 5571 5571 5571 5572 5573 5574 5575 5576 5576 5577 5579 5580 5582 5583 5583 5584 5587 5589 5588 5589 5592 5593 5595 5596 5595 5594 5595 5595 5596 5598 5599 5598 5599 5600 5601 5602 5602 5602 5603 5603 5604 5604 5605 5604 5604 5604 5604 5604 5604 5604 5604 5604 5604 5604 5604 5603 5603 5603 5603 5602
5573 5572 5572 5571 5571 5570 5570 5569 5568 5567 5567 5566 5565 5564 5563 5562 5561 5560 5560 5561 5563 5563 5563 5563 5562 5561 5561 5561 5562 5563 5564 5565 5566 5566 5566 5568 5569 5571 5572 5572 5574 5576 5578 5578 5580 5582 5583 5584 5585 5584 5585 5587 5587 5587 5589 5590 5590 5590 5591 5592 5592 5593 5593 5594 5595 5595 5596 5597 5596 5596 5596 5597 5597 5597 5597 5597 5597 5598 5598 5598 5598 5598 5598 5598 5597